Regional Weather Roundup
Issued by NWS

Current Version | Previous Version | Text Only | Print | Product List | Glossary On
Versions: 1 2 3 4 5 6 7 8 9 10 11 12 13 14 15 16 17 18 19 20 21 22 23 24 25 26 27
000
ASUS45 KSLC 280710
RWRUT

UTAH REGIONAL WEATHER ROUNDUP
NATIONAL WEATHER SERVICE SALT LAKE CITY UT
1200 AM MST TUE FEB 28 2017

UTZ001>011-023>025-280800-

NORTHERN UTAH

CITY           SKY/WX    TMP DP  RH WIND       PRES   REMARKS
BRIGHAM CITY     N/A     19  15  82 CALM      29.83F
HILL AFB       CLOUDY    24  19  82 SE6       29.81S WCI  17
LOGAN          CLEAR     10   6  84 E5        29.83S WCI   2
OGDEN          CLOUDY    24  18  77 S7        29.81S WCI  16
SALT LAKE CITY PTCLDY    25  19  78 SE7       29.82F WCI  17
TOOELE VALLEY  PTCLDY    21  18  86 S7        29.84R WCI  13
WENDOVER       MOCLDY    28  12  50 W6        29.82F WCI  22
HEBER CITY     PTCLDY     7   5  92 CALM      29.79R
WEST JORDAN    CLOUDY    27  22  83 SW6       29.83S WCI  20

$$

UTZ011>015-024>027-280800-

CENTRAL/NORTHEAST UTAH

CITY           SKY/WX    TMP DP  RH WIND       PRES   REMARKS
PROVO AIRPORT  FOG       12   9  87 SE5       29.84S VSB 1/2 WCI   4
MOAB/CANYONLAN CLOUDY    38  22  52 W7        29.70F WCI  33
DELTA          CLOUDY    21  19  93 N3        29.82S
PRICE          MOCLDY    27  12  53 NW9       29.72F WCI  18
RICHFIELD      CLOUDY    25  25 100 N1        29.84F FOG
ROOSEVELT      CLOUDY    25  14  63 CALM      29.79F
VERNAL         CLOUDY    28  19  69 N7        29.76F WCI  21

$$

UTZ013>016-019>022-027-280800-

SOUTHERN UTAH

CITY           SKY/WX    TMP DP  RH WIND       PRES   REMARKS
BRYCE CANYON   CLOUDY    26  23  88 SE5       29.72S WCI  20
CEDAR CITY     CLOUDY    28  26  92 N7        29.75R WCI  21
MILFORD        FLURRIES  26  24  92 N14       29.79S WCI  14
ST GEORGE      PTSUNNY   46  39  76 SW5       29.75S
HANKSVILLE     CLOUDY    39  23  52 NW6       29.72F WCI  35
KANAB          MOCLDY    37  36  93 SW3       29.79S
BLANDING       CLOUDY    32  32 100 CALM      29.82F

$$

REGIONAL REPORTS     COLORADO/ARIZONA

CITY           SKY/WX    TMP DP  RH WIND       PRES   REMARKS
CRAIG, CO      LGT SNOW  22  18  85 E5        29.79S FOG     WCI  16
GRAND JUNCTION CLOUDY    38  33  82 N6        29.70F WCI  33
RIFLE, CO      CLOUDY    33  22  63 NW23G32   29.72S WCI  21
MONTROSE, CO   LGT SNOW  33  32  96 W9        29.76F FOG     WCI  25
CORTEZ, CO     LGT RAIN  34  33  96 CALM      29.77F
COLORADO CITY    N/A     39  36  87 CALM      29.77F
PAGE, AZ       CLOUDY    43  33  68 S8        29.73F
GRAND CANYON   LGT SNOW  32  32 100 SW12      29.77S VSB 3/4 WCI  23
KINGMAN, AZ    LGT RAIN  46  43  89 SW21G29   29.76S
FLAGSTAFF, AZ  SNOW      30  29  96 SW9       29.79F VSB 1/2 WCI  22

$$

REGIONAL REPORTS    NEVADA/IDAHO/WYOMING

CITY           SKY/WX    TMP DP  RH WIND       PRES   REMARKS
LAS VEGAS, NV  CLOUDY    52  33  48 SW5       29.72F
ELY, NY        PTCLDY     6   3  87 S12       29.80S WCI  -9
ELKO, NV       PTCLDY    22  16  78 CALM      29.81S
POCATELLO, ID  CLOUDY    22  12  65 S12       29.79F WCI  10
BURLEY, ID     CLOUDY    25  14  63 SW5       29.78F WCI  19
FORT BRIDGER,    N/A     12  11  96 SW9       29.76S WCI   0
EVANSTON, WY   CLOUDY    11   7  84 SW6       29.73S WCI   1
ROCK SPRINGS,  CLOUDY    10   5  80 SW6       29.74S WCI   0

$$




USA.gov is the U.S. government's official web portal to all federal, state and local government web resources and services.